Regional Weather Roundup
Issued by NWS

Home | Current Version | Previous Version | Text Only | Print | Product List | Glossary Off
Versions: 1 2 3 4 5 6 7 8 9 10 11 12 13 14 15 16 17 18 19 20 21 22 23 24 25 26 27 28 29 30 31 32 33 34 35 36 37 38 39 40 41 42 43 44 45 46 47 48 49 50

000
ASUS43 KDTX 240601
RWRMI
MICHIGAN HOURLY REGIONAL WEATHER ROUNDUP
NATIONAL WEATHER SERVICE DETROIT/PONTIAC MI
200 AM EDT SUN JUL 24 2016

NOTE: "FAIR" INDICATES FEW OR NO CLOUDS BELOW 12,000 FEET WITH NO
SIGNIFICANT WEATHER AND/OR OBSTRUCTION TO VISIBILITY.

MIZ047>049-052>055-059>063-066>070-074>076-081>083-240700-
SOUTHEAST LOWER MICHIGAN

CITY           SKY/WX    TMP DP  RH WIND       PRES   REMARKS
ADRIAN         CLOUDY    75  71  87 CALM      29.98R
6HR MIN TEMP:  75; 6HR MAX TEMP:  87;

ALMA           CLOUDY    75  67  74 S3        29.96S
ANN ARBOR      MOCLDY    76  63  64 E7        29.98S
BAD AXE        MOCLDY    64  58  80 S3        29.98F
CARO           CLOUDY    69  58  68 CALM      29.97S
DETROIT CITY   CLOUDY    77  68  73 SE5       29.98S
6HR MIN TEMP:  76; 6HR MAX TEMP:  85;

DETROIT        CLOUDY    78  60  53 E5        29.98F
6HR MIN TEMP:  78; 6HR MAX TEMP:  89;

FLINT          CLOUDY    77  59  53 SE6       29.97F
6HR MIN TEMP:  74; 6HR MAX TEMP:  91;

GROSSE ILE     CLOUDY    77  61  56 CALM      29.97S
6HR MIN TEMP:  76; 6HR MAX TEMP:  85;

HOWELL         PTCLDY    76  58  53 SE8       29.98S
6HR MIN TEMP:  76; 6HR MAX TEMP:  87;


CITY           SKY/WX    TMP DP  RH WIND       PRES   REMARKS
JACKSON        CLOUDY    77  68  73 SE6       29.98R
6HR MIN TEMP:  75; 6HR MAX TEMP:  86;

LAMBERTVILLE   CLOUDY    75  69  80 CALM      29.98R
6HR MIN TEMP:  75; 6HR MAX TEMP:  86;

LANSING        CLOUDY    80  62  54 S9        29.97R
6HR MIN TEMP:  77; 6HR MAX TEMP:  88;

LAPEER         FAIR      69  59  71 CALM      29.99F
6HR MIN TEMP:  67; 6HR MAX TEMP:  81;

MASON          CLOUDY    76  63  64 SE5       29.97S
MONROE         CLOUDY    77  73  87 SE5       29.96S
6HR MIN TEMP:  74; 6HR MAX TEMP:  86;

MT. CLEMENS    CLOUDY    73  65  76 CALM      29.97R
6HR MIN TEMP:  73; 6HR MAX TEMP:  83;

PONTIAC        PTCLDY    74  61  63 E3        29.98F
6HR MIN TEMP:  73; 6HR MAX TEMP:  87;

PORT HOPE        N/A     71  61  70 SE3       29.96F
6HR MIN TEMP:  70; 6HR MAX TEMP:  79;

PORT HURON     PTCLDY    61  61 100 CALM      29.99S
TRI CITIES     CLOUDY    72  66  81 SE7       29.96F
6HR MIN TEMP:  71; 6HR MAX TEMP:  87;

MIDLAND        FAIR      74  64  73 CALM      29.95S
6HR MIN TEMP:  71; 6HR MAX TEMP:  87;

TROY           MOCLDY    78  60  53 E3        30.00F
SAGINAW HB     CLOUDY    72  61  68 SE5       29.96S
$$
MIZ043>046-050>051-056>058-064>065-071>073-077>080-240700-
SOUTHWEST LOWER MICHIGAN

CITY           SKY/WX    TMP DP  RH WIND       PRES   REMARKS
BATTLE CREEK   CLOUDY    74  70  87 NW7       30.00R
6HR MIN TEMP:  74; 6HR MAX TEMP:  83;

BENTON HARBOR  RAIN      73  71  93 SW17G25   30.00R FOG
6HR MIN TEMP:  73; 6HR MAX TEMP:  82; 6HR PCP:  0.20;

BIG RAPIDS     CLOUDY    72  71  99 SE5       29.94S
6HR MIN TEMP:  71; 6HR MAX TEMP:  81;

COLDWATER      CLOUDY    75  73  93 CALM      29.98R
6HR MIN TEMP:  75; 6HR MAX TEMP:  83;

FREMONT        FAIR      75  74  96 S5        29.94F
HOLLAND        LGT RAIN  72  69  90 SE3       29.96F
6HR MIN TEMP:  72; 6HR MAX TEMP:  82; 6HR PCP:  0.04;

GRAND RAPIDS   LGT RAIN  75  69  81 W13       29.99R
6HR MIN TEMP:  75; 6HR MAX TEMP:  87; 6HR PCP: TRACE;

IONIA          FAIR      75  67  74 CALM      29.97R
6HR MIN TEMP:  73; 6HR MAX TEMP:  82;

KALAMAZOO      CLOUDY    76  71  85 N7        29.98R
6HR MIN TEMP:  76; 6HR MAX TEMP:  86; 6HR PCP:  0.02;

LUDINGTON      CLOUDY    74  71  89 SW7       29.92R
6HR MIN TEMP:  71; 6HR MAX TEMP:  78;

MARSHALL       CLOUDY    75  72  88 CALM      29.98R
MOUNT PLEASANT CLOUDY    72  67  85 CALM      29.95S
6HR MIN TEMP:  71; 6HR MAX TEMP:  88;

MUSKEGON       LGT RAIN  73  69  87 S10       29.94F
6HR MIN TEMP:  73; 6HR MAX TEMP:  83; 6HR PCP: TRACE;

SOUTH HAVEN    LGT RAIN  72  71  97 NE3       29.96F
$$
MIZ016>042-240700-
NORTHERN LOWER MICHIGAN

CITY           SKY/WX    TMP DP  RH WIND       PRES   REMARKS
ALPENA         PTCLDY    65  58  78 SE3       29.97S
6HR MIN TEMP:  65; 6HR MAX TEMP:  80;

BEAVER ISLAND  CLOUDY    73  64  72 E6        29.90F
6HR MIN TEMP:  68; 6HR MAX TEMP:  77;

BELLAIRE       CLOUDY    75  62  63 CALM      29.91F
6HR MIN TEMP:  67; 6HR MAX TEMP:  79;

CADILLAC       CLOUDY    74  65  73 SE3       29.95S
CHARLEVOIX     CLOUDY    74  63  67 SE7       29.93F
6HR MIN TEMP:  72; 6HR MAX TEMP:  80;

FRANKFORT      CLOUDY    76  64  65 S3        29.90S
GAYLORD        CLOUDY    72  56  57 S8        29.96F
6HR MIN TEMP:  72; 6HR MAX TEMP:  85;

GRAYLING       CLOUDY    72  60  66 SE6       29.96F
6HR MIN TEMP:  71; 6HR MAX TEMP:  85;

HARBOR SPRINGS CLOUDY    73  61  66 NE6       29.91F
HOUGHTON LAKE  MOCLDY    72  61  68 SE9       29.97F
6HR MIN TEMP:  71; 6HR MAX TEMP:  84;

MANISTEE       CLOUDY    74  67  78 CALM      29.91S
OSCODA         CLOUDY    65  58  79 CALM      29.97S
6HR MIN TEMP:  65; 6HR MAX TEMP:  78;

PELLSTON       CLOUDY    72  61  68 SE6       29.93F
6HR MIN TEMP:  67; 6HR MAX TEMP:  85;

ROGERS CITY    MOCLDY    72  57  60 S5        29.96F
TRAVERSE CITY  CLOUDY    77  64  64 VRB3      29.89S
6HR MIN TEMP:  72; 6HR MAX TEMP:  82;

$$
MIZ007>008-015-240700-
EASTERN UPPER MICHIGAN

CITY           SKY/WX    TMP DP  RH WIND       PRES   REMARKS
KINROSS        CLOUDY    70  61  73 SE8       29.94F
6HR MIN TEMP:  69; 6HR MAX TEMP:  80;

MACKINAC ISLAN CLOUDY    75  57  53 SE8       29.93S
6HR MIN TEMP:  69; 6HR MAX TEMP:  78;

NEWBERRY       CLOUDY    69  62  80 SE3       29.92S
6HR MIN TEMP:  67; 6HR MAX TEMP:  78;

S. S. MARIE    CLOUDY    69  63  81 NE6       29.94S
6HR MIN TEMP:  69; 6HR MAX TEMP:  81;

MUNISING         N/A     73  61  65 VRB5G16   29.90R
6HR MIN TEMP:  70; 6HR MAX TEMP:  74;

$$
MIZ004>006-011>014-085-240700-
CENTRAL UPPER MICHIGAN

CITY           SKY/WX    TMP DP  RH WIND       PRES   REMARKS
ESCANABA       CLOUDY    68  64  88 E9        29.88F
6HR MIN TEMP:  66; 6HR MAX TEMP:  75; 6HR PCP:  0.03;

MENOMINEE      CLOUDY    73  72  96 S3        29.88F
6HR MIN TEMP:  71; 6HR MAX TEMP:  79;

SAWYER-GWINN   RAIN      66  63  89 S12G17    29.91S
6HR MIN TEMP:  66; 6HR MAX TEMP:  78; 6HR PCP:  0.02;

$$
MIZ001>003-009>011-084-240700-
WESTERN UPPER MICHIGAN

CITY           SKY/WX    TMP DP  RH WIND       PRES   REMARKS
IRON MOUNTAIN  HVY RAIN  68  66  93 VRB5      29.88S FOG
6HR MIN TEMP:  68; 6HR MAX TEMP:  77; 6HR PCP:  0.33;

HOUGHTON       CLOUDY    66  60  81 SE3       29.85S
6HR MIN TEMP:  65; 6HR MAX TEMP:  70; 6HR PCP: TRACE;

COPPER HARBOR    N/A     70  62  76 SW7G17    29.83S
6HR MIN TEMP:  69; 6HR MAX TEMP:  74;

IRONWOOD       CLEAR     70  68  94 S6        29.81F
6HR MIN TEMP:  70; 6HR MAX TEMP:  77;

$$

ABBREVIATIONS USED IN REMARKS
   TC - TEMPERATURE IN CELSIUS
  WCI - WIND CHILL INDEX
   HX - HEAT INDEX
  VSB - VISIBILITY




USA.gov is the U.S. government's official web portal to all federal, state and local government web resources and services.